Location: Zagreb
(45.8000°N, 16.0000°E)
Time: 07:19:45
(UTC+01:00)

N. Korean satellite - Pass Details

Date: 06 December 2021
Orbit: 447 x 491 km, 97.3° (Epoch: 23 January)

Event Time Altitude Azimuth Distance (km) Brightness Sun altitude
Rises 17:01:39 0° 195° (SSW) 2,522 10.8 -8.5°
Reaches altitude 10° 17:04:00 10° 209° (SSW) 1,640 10.1 -8.9°
Maximum altitude 17:06:54 24° 265° (W) 1,022 9.2 -9.4°
Drops below altitude 10° 17:09:47 10° 321° (NW) 1,629 9.5 -9.8°
Sets 17:12:07 0° 335° (NNW) 2,501 10.2 -10.2°
